When you browse on this site, cookies collect data to enhance your experience and personalize the content and advertising you see.
Visit our Privacy Policy to learn more. By continuing to use the site, you agree to this use of cookies and data.
  • en Suisse
  • Liste des pays
  • À 7 jours
  • Température de l'eau
  • Carte météo
  • Widgets météo
  • user-avatar
    Se connecter

    Météo par heure à Georgetown

    Ce jour, 23 Août, Vendredi

    Heure Température Précipitation Vent Pression Humidité
    00:00 +26°C° 0 mm 2 m/s 760 mmHg 93%
    01:00 +26°C° 0 mm 2 m/s 760 mmHg 93%
    02:00 +26°C° 0 mm 2 m/s 760 mmHg 93%
    03:00 +26°C° 0.1 mm 2 m/s 760 mmHg 93%
    04:00 +26°C° 0.1 mm 2 m/s 760 mmHg 94%
    05:00 +26°C° 0.1 mm 2 m/s 760 mmHg 94%
    06:00 +27°C° 0.4 mm 2 m/s 761 mmHg 91%
    07:00 +28°C° 0.4 mm 2 m/s 761 mmHg 89%
    08:00 +29°C° 0.4 mm 2 m/s 761 mmHg 86%
    09:00 +30°C° 0.1 mm 3 m/s 761 mmHg 77%
    10:00 +33°C° 0.1 mm 3 m/s 761 mmHg 69%
    11:00 +34°C° 0.1 mm 3 m/s 761 mmHg 60%
    12:00 +34°C° 0.6 mm 3 m/s 760 mmHg 64%
    13:00 +33°C° 0.6 mm 3 m/s 760 mmHg 67%
    14:00 +33°C° 0.6 mm 3 m/s 759 mmHg 70%
    15:00 +31°C° 0.2 mm 3 m/s 759 mmHg 72%
    16:00 +31°C° 0.2 mm 3 m/s 758 mmHg 75%
    17:00 +30°C° 0.2 mm 3 m/s 758 mmHg 77%
    18:00 +29°C° 0 mm 3 m/s 759 mmHg 81%
    19:00 +28°C° 0 mm 3 m/s 759 mmHg 85%
    20:00 +27°C° 0 mm 3 m/s 760 mmHg 89%
    21:00 +27°C° 0 mm 4 m/s 760 mmHg 89%
    22:00 +27°C° 0 mm 4 m/s 760 mmHg 88%
    23:00 +27°C° 0 mm 4 m/s 760 mmHg 88%

    Demain, 24 Août, Samedi

    Heure Température Précipitation Vent Pression Humidité
    00:00 +27°C° 0.1 mm 4 m/s 760 mmHg 89%
    01:00 +27°C° 0.1 mm 4 m/s 760 mmHg 90%
    02:00 +27°C° 0.1 mm 3 m/s 759 mmHg 90%
    03:00 +26°C° 0.3 mm 3 m/s 759 mmHg 92%
    04:00 +26°C° 0.3 mm 3 m/s 759 mmHg 93%
    05:00 +26°C° 0.3 mm 3 m/s 760 mmHg 94%
    06:00 +27°C° 0.5 mm 2 m/s 760 mmHg 92%
    07:00 +28°C° 0.5 mm 2 m/s 760 mmHg 90%
    08:00 +29°C° 0.5 mm 2 m/s 761 mmHg 88%
    09:00 +30°C° 0.6 mm 2 m/s 761 mmHg 85%
    10:00 +30°C° 0.6 mm 3 m/s 761 mmHg 82%
    11:00 +31°C° 0.6 mm 3 m/s 761 mmHg 78%
    12:00 +31°C° 0.6 mm 3 m/s 760 mmHg 77%
    13:00 +31°C° 0.6 mm 3 m/s 760 mmHg 76%
    14:00 +31°C° 0.6 mm 3 m/s 759 mmHg 74%
    15:00 +31°C° 0 mm 3 m/s 759 mmHg 74%
    16:00 +30°C° 0 mm 3 m/s 759 mmHg 74%
    17:00 +30°C° 0 mm 4 m/s 758 mmHg 74%
    18:00 +29°C° 0 mm 3 m/s 759 mmHg 80%
    19:00 +28°C° 0 mm 3 m/s 759 mmHg 86%
    20:00 +27°C° 0 mm 3 m/s 760 mmHg 91%
    21:00 +27°C° 0 mm 3 m/s 760 mmHg 92%
    22:00 +27°C° 0 mm 2 m/s 760 mmHg 92%
    23:00 +26°C° 0 mm 2 m/s 761 mmHg 93%

    Après-demain, 25 Août, Dimanche

    Heure Température Précipitation Vent Pression Humidité
    00:00 +26°C° 0.1 mm 2 m/s 760 mmHg 93%
    01:00 +26°C° 0.1 mm 2 m/s 760 mmHg 93%
    02:00 +26°C° 0.1 mm 2 m/s 759 mmHg 93%
    03:00 +26°C° 0 mm 2 m/s 759 mmHg 93%
    04:00 +26°C° 0 mm 2 m/s 759 mmHg 93%
    05:00 +26°C° 0 mm 2 m/s 759 mmHg 93%
    06:00 +27°C° 0 mm 2 m/s 760 mmHg 87%
    07:00 +29°C° 0 mm 2 m/s 760 mmHg 81%
    08:00 +30°C° 0 mm 2 m/s 760 mmHg 75%
    09:00 +31°C° 0 mm 2 m/s 760 mmHg 71%
    10:00 +32°C° 0 mm 2 m/s 760 mmHg 66%
    11:00 +34°C° 0 mm 3 m/s 760 mmHg 61%
    12:00 +33°C° 0.2 mm 3 m/s 760 mmHg 62%
    13:00 +33°C° 0.2 mm 3 m/s 759 mmHg 63%
    14:00 +33°C° 0.2 mm 3 m/s 758 mmHg 64%
    15:00 +31°C° 0.1 mm 3 m/s 758 mmHg 68%
    16:00 +31°C° 0.1 mm 3 m/s 758 mmHg 71%
    17:00 +30°C° 0.1 mm 4 m/s 758 mmHg 75%
    18:00 +29°C° 0 mm 3 m/s 758 mmHg 80%
    19:00 +28°C° 0 mm 3 m/s 759 mmHg 84%
    20:00 +27°C° 0 mm 3 m/s 759 mmHg 89%
    21:00 +26°C° 0 mm 3 m/s 760 mmHg 90%
    22:00 +26°C° 0 mm 2 m/s 760 mmHg 91%
    23:00 +26°C° 0 mm 2 m/s 760 mmHg 92%

    26 Août, Lundi

    Heure Température Précipitation Vent Pression Humidité
    00:00 +26°C° 0 mm 2 m/s 759 mmHg 92%
    01:00 +26°C° 0 mm 2 m/s 759 mmHg 92%
    02:00 +26°C° 0 mm 1 m/s 758 mmHg 92%
    03:00 +26°C° 0 mm 1 m/s 758 mmHg 92%
    04:00 +25°C° 0 mm 1 m/s 758 mmHg 92%
    05:00 +25°C° 0 mm 1 m/s 758 mmHg 92%
    06:00 +27°C° 0 mm 1 m/s 759 mmHg 86%
    07:00 +28°C° 0 mm 1 m/s 759 mmHg 80%
    08:00 +30°C° 0 mm 1 m/s 760 mmHg 74%
    09:00 +31°C° 0.1 mm 1 m/s 760 mmHg 69%
    10:00 +32°C° 0.1 mm 2 m/s 760 mmHg 65%
    11:00 +32°C° 0.1 mm 2 m/s 760 mmHg 61%
    12:00 +32°C° 0.6 mm 2 m/s 759 mmHg 65%
    13:00 +33°C° 0.6 mm 3 m/s 758 mmHg 70%
    14:00 +31°C° 0.6 mm 3 m/s 758 mmHg 75%
    15:00 +31°C° 0.2 mm 3 m/s 757 mmHg 75%
    16:00 +30°C° 0.2 mm 3 m/s 757 mmHg 75%
    17:00 +30°C° 0.2 mm 3 m/s 757 mmHg 74%
    18:00 +29°C° 0 mm 2 m/s 758 mmHg 78%
    19:00 +28°C° 0 mm 2 m/s 758 mmHg 82%
    20:00 +27°C° 0 mm 2 m/s 759 mmHg 86%
    21:00 +27°C° 0 mm 2 m/s 759 mmHg 86%
    22:00 +27°C° 0 mm 2 m/s 759 mmHg 87%
    23:00 +27°C° 0 mm 2 m/s 759 mmHg 88%

    27 Août, Mardi

    Heure Température Précipitation Vent Pression Humidité
    00:00 +26°C° 0.2 mm 2 m/s 758 mmHg 89%
    01:00 +26°C° 0.2 mm 2 m/s 758 mmHg 90%
    02:00 +26°C° 0.2 mm 2 m/s 757 mmHg 91%
    03:00 +26°C° 0.2 mm 1 m/s 758 mmHg 91%
    04:00 +26°C° 0.2 mm 1 m/s 758 mmHg 91%
    05:00 +26°C° 0.2 mm 1 m/s 758 mmHg 92%
    06:00 +27°C° 0.8 mm 1 m/s 758 mmHg 90%
    07:00 +28°C° 0.8 mm 1 m/s 759 mmHg 89%
    08:00 +28°C° 0.8 mm 1 m/s 759 mmHg 87%
    09:00 +29°C° 0.8 mm 1 m/s 759 mmHg 83%
    10:00 +30°C° 0.8 mm 2 m/s 759 mmHg 78%
    11:00 +31°C° 0.8 mm 2 m/s 759 mmHg 74%
    12:00 +32°C° 0.2 mm 2 m/s 758 mmHg 68%
    13:00 +34°C° 0.2 mm 3 m/s 758 mmHg 62%
    14:00 +35°C° 0.2 mm 3 m/s 757 mmHg 57%
    15:00 +34°C° 0.1 mm 3 m/s 757 mmHg 62%
    16:00 +33°C° 0.1 mm 3 m/s 757 mmHg 67%
    17:00 +31°C° 0.1 mm 3 m/s 757 mmHg 72%
    18:00 +30°C° 0 mm 2 m/s 757 mmHg 78%
    19:00 +28°C° 0 mm 2 m/s 757 mmHg 84%
    20:00 +27°C° 0 mm 2 m/s 758 mmHg 90%
    21:00 +27°C° 0.1 mm 2 m/s 758 mmHg 91%
    22:00 +27°C° 0.1 mm 2 m/s 758 mmHg 92%
    23:00 +27°C° 0.1 mm 2 m/s 758 mmHg 93%

    28 Août, Mercredi

    Heure Température Précipitation Vent Pression Humidité
    00:00 +27°C° 0.3 mm 2 m/s 758 mmHg 93%
    01:00 +27°C° 0.3 mm 2 m/s 757 mmHg 94%
    02:00 +27°C° 0.3 mm 2 m/s 757 mmHg 94%
    03:00 +27°C° 1.1 mm 2 m/s 757 mmHg 94%
    04:00 +27°C° 1.1 mm 2 m/s 757 mmHg 93%
    05:00 +26°C° 1.1 mm 2 m/s 758 mmHg 93%
    06:00 +27°C° 0.5 mm 3 m/s 758 mmHg 91%
    07:00 +28°C° 0.5 mm 3 m/s 759 mmHg 89%
    08:00 +29°C° 0.5 mm 3 m/s 760 mmHg 87%
    09:00 +30°C° 0.4 mm 3 m/s 760 mmHg 78%
    10:00 +33°C° 0.4 mm 4 m/s 760 mmHg 69%
    11:00 +34°C° 0.4 mm 4 m/s 760 mmHg 60%
    12:00 +34°C° 0 mm 4 m/s 759 mmHg 58%
    13:00 +35°C° 0 mm 4 m/s 758 mmHg 56%
    14:00 +35°C° 0 mm 4 m/s 758 mmHg 53%
    15:00 +34°C° 0 mm 4 m/s 757 mmHg 60%
    16:00 +33°C° 0 mm 4 m/s 757 mmHg 66%
    17:00 +30°C° 0 mm 4 m/s 757 mmHg 73%
    18:00 +29°C° 0 mm 4 m/s 757 mmHg 78%
    19:00 +28°C° 0 mm 3 m/s 757 mmHg 82%
    20:00 +27°C° 0 mm 3 m/s 758 mmHg 87%
    21:00 +27°C° 0 mm 3 m/s 758 mmHg 89%
    22:00 +27°C° 0 mm 3 m/s 758 mmHg 90%
    23:00 +27°C° 0 mm 2 m/s 759 mmHg 91%
    Voir plus